 (システムステータス)
   No.00 JTD ON                           01 太陽センサー ON
         JTA OFF                             地磁気センサー ON
         パケット 1200bps
         SRAM ON   DCM ON
         メインリレー OFF
         フレーム 0
      02 バッテリロジック トリクル       03 デジタル送信機 ---
         バッテリ充電モード トリクル         デジタルトーカモード OFF
         PCUレベル-1                 パケットモード データ収集
         PCUオート                  パケットモード ---
         UVCレベル-2                 データ再生モード ---
         UVC ON                   データ収集モード ---
      14 衛星時刻 11271014 [sec] (換算表)

 (アナログステータス)                                     [N:10進数]
      15 太陽電池発生電流         1.009812 [A]   (I=0.009765*N)
      16 バッテリ充放電電流          0.1184 [A]   (I=-(2-N*0.0196))
      17 バッテリ端子電圧         15.71106 [V]   (V=0.10761*N )
      18 バッテリ中間端子電圧        6.93648 [V]   (V=0.04817*N )
      19 バス電圧           17.25504 [V]   (V=0.09804*N )
      20 +5V安定化電圧           5.0626 [V]   (V=0.02978*N )
      21 −5V安定化電圧         -4.88392 [V]   (V=-0.05956*N)
      22 +10V安定化電圧        10.060008 [V]   (V=0.059881*N)
      23 JTA出力電力          -91.5866 [mW]  (Pw=6.4997*N-98.0863)
      24 JTD出力電力   1568.2669856167 [mW]  (Pw=10^((0.04586*N+
                                                    21.865)/10)
      25 バッテリセル温度        31.782625 [C]   (T=-0.388375*N+81.883)
      26 構体温度(1)            28.28725 [C]   (T=-0.388375*N+81.883)
      27 構体温度(2)           28.675625 [C]   (T=-0.388375*N+81.883)
      28 構体温度(3)            29.84075 [C]   (T=-0.388375*N+81.883)
      29 構体温度(4)              29.064 [C]   (T=-0.388375*N+81.883)

 《フレーム1》

 (システムステータス)
   No.00 CWテレメトリ ON
         フレーム 1

 (アナログステータス)
      11 スピン周期                10597 [msec](換算表)
      12 地磁気センサーX軸        27941.172 [nT]  (nT=N*490.196)
      13 地磁気センサーZ軸        40196.072 [nT]  (nT=N*490.196)
      14 太陽角                1011011 [code](換算表−10度)
      18 太陽電池パネル温度(1)      -2.46528 [C]   (T=2.26778*N-283.67)
      19 太陽電池パネル温度(2)       11.1414 [C]   (T=2.26778*N-283.67)
      23 JTD Tr 温度        34.889625 [C]   (T=-0.388375*N+81.883)
      24 太陽電池パネル温度(3)      31.55142 [C]   (T=2.26778*N-283.67)


  参考   http://www.jarl.or.jp/Japanese/3_Fuji/jasmenu.htm

  補足   このワークシート「tlmconv.wk4」は、Windows95上で表計算ソフトの
     「Lotus 1-2-3」(バージョンR5J)を用いて作成したので、拡張子はwk4
       となっています。どなたか、Windows3.1上の「Lotus」でもこのワーク
       シートが開けるかどうか実験報告をいただけると幸いに思います。

  ============================================
  Name : JE9PEL/1 脇田
  Mail : JE9PEL@jamsat.or.jp
  URL  : http://www.asahi-net.or.jp/~EI7M-WKT/
  QTH  : Yokohama, Japan
  Date : Sep.20 '97
  ============================================
 4 )FO-20(ふじ2号):JAモードの運用で順調に作動しています.
     アナログモードにてのQSOや思わぬDXが楽しめます.

  ■ 軌道要素1 :出典は「ふじ3号」に同じ.   
 
  FO-20
  1 20480U 90013C   97260.89013270  .00000022  00000-0  11717-3 0 00064
  2 20480 099.0557 205.0850 0541106 167.4073 194.1183 12.83238969356592

  ■ 軌道要素2 :出典は「ふじ3号」に同じ.   
 
  Satellite: FO-20
  Catalog number: 20480
  Epoch time:      97260.89013270
  Element set:    0006
  Inclination:      099.0557 deg
  RA of node:       205.0850 deg
  Eccentricity:    0.0541106
  Arg of perigee:   167.4073 deg
  Mean anomaly:     194.1183 deg
  Mean motion:   12.83238969 rev/day
  Decay rate:        2.2e-07 rev/day^2
  Epoch rev:           35659
  Checksum:              297
   ----------------------------------------------------------------
 5 ) FO−20 JAアナログモードでRS 59程度で(受信感度はア
   ンテナより見て約125db)非常に強力な信号で受信できています。
   衛星の現在の状態を符号化しビーコン波にのっているCW テレメトリです.
 (熊本市)
    
   9月19日(金) JST  12:20 のパスの 一部分です。
 AS35670C1  19SEP97
 JST 12:21 - 12:39
 Freq.435.802 - 435.787 MHz
                                                                               
HI HI 126 148 169 170 285 284 251 261 352 352 353 352 401 435 402 400 500 522 500 500 
HI HI 131 148 169 170 285 284 252 261 352 352 353 352 401 435 402 400 500 520 500 500 
HI HI 129 148 169 170 285 284 251 261 352 352 353 352 401 435 402 400 500 520 500 500 
HI HI 134 148 169 170 285 284 253 261 352 352 353 352 401 435 402 400 500 520 500 500 
HI HI 134 148 169 170 285 284 252 261 352 352 352 352 401 435 402 400 500 520 500 500 
HI HI 136 148 169 170 285 284 253 261 352 352 352 352 401 435 402 400 500 520 500 500 
HI HI 139 148 169 170 285 284 253 261 352 352 352 352 401 435 402 400 500 520 500 500 
HI HI 141 148 169 170 285 284 259 261 352 352 352 352 401 435 402 400 500 520 500 500 
HI HI 141 148 169 170 285 284 252 261 352 352 352 352 401 435 402 400 500 520 500 500 
HI HI 141 148 169 170 285 284 252 261 352 352 352 352 401 435 402 400 500 520 500 500 
HI HI 141 148 170 170 285 284 251 261 352 352 352 352 401 435 402 400 500 530 500 500 
HI HI 142 148 170 170 285 284 252 261 352 352 352 352 401 435 402 400 500 530 500 500
HI HI 142 148 170 170 285 284 247 261 352 352 352 352 401 435 402 400 500 530 500 500 
HI HI 142 148 170 171 285 284 245 261 352 352 352 352 401 435 402 400 500 530 500 500 
  
  6)上記テレメトリの最終行を換算した例です.
    FOー20(ふじ2号)	
  
  CWアナログテレメトリ換算値			

  テレメトリ	内     容		換算値	単  位
  1A	太陽電池発生電流	=	920.0	[mA]
  1B	バッテリ充放電電流	=	-80.0	[mA]
  1C	バッテリ端子電圧	=	 16.3	[ V ]
  1D	バッテリ1/2電圧	=	  7.4	[ V ]
  2A	バ ス 電圧	        =	 17.8	[ V ]
  2B	+5V安定化電圧	=	  5.3	[ V ]
  2C	JTA送信出力	        =     1085.8	[ mW ]
  2D	校正電圧	        =	  1.3	[ V] 
  3A	バッテリ温度	        = 	 15.0	[ ℃ ]
  3B	構体温度ー1	        =	 15.0	[ ℃ ]
  3C	構体温度ー2	        = 	 15.0	[ ℃ ]
  3D	構体温度ー3	        = 	 15.0	[ ℃ ]
				

--------------------------------------------------------------------------
  ● [jamsat-bb:2858]に英国のハムがFO−20をどのように評価しているかが
     JJ1WTK局坂本和志氏により紹介されていますので転載させて頂きました。

   ときどきメールのやりとりをしているイギリスの G8VR,Ken からこんなメールが
 届きましたので紹介します。意訳しているところもあります。
 1937年ライセンスと書いてありますから、みなさんの年齢と引き算してみてくだ
 さい。Kenは、AMSAT-UK(英国)の機関紙 OSCAR Newsに、アナログモードオペレ
 ーターのための記事「Mode A & K Operaters」(だったかな、ちょっとウロ覚
 え)を書いている人です。

 > Date: Sun, 3 Aug 1997 03:15:14 -0400 (EDT)
 > From: G8vr@aol.com
 > To: jj1wtk@jamsat.or.jp

 ハローカズ、FO-20が連続してJAモードで運用されていることを、われわれアナ
 ログモードの オペレーターがどれだけ感謝しているか、またいかに評価してい
 るかをぜひ日本のみなさん、JAMSATのみなさんに伝えてください。われわれは、
 いつもイギリスから大西洋横断のQSOをFO-20を使って行っており、とても楽しま
 せてもらっています。ダウンリンクは強力だし、アップリンクに対する感度もす
 ばらしいです。
 RS-10がもはや使えない今日、Phase-3D もまだ上がっていませんし、FO-20のJA
 モードは大変貴重です。
 FO-20がJAモードなのはありがたいね、いつまでもずっと長くJAモードのままで
 いてくれたらいいねと多くのアマチュアと話をしています。

 > Hello Kazu,   Will you please tell Jamsat how very much we analogue operators
 > appreciate FO 20 being in Mode JA.  We are having excellent transatlantic
 > contacts via this satellite from the UK and it is a pleasure to use it.  The
 > downlink is strong and the uplink receiver very sensitive.  With RS 10 no
 > longer operating , and  the  problems with the launch of P3D,  JA mode is
 > very important and I know I speak for many amateurs when I say that we hope
 > that FO 20 will be in this mode for a very long time.  Thank you very much.
 >  73 Ken G8VR (Licensed in 1937! )    
 
 ● FOー20のJAモードでCWアナログQSO

   [jamsat-bb:2860]に投稿されたJA6BX局江崎昌男氏のQSOの状況です.
   
   8月5日 14:50(JST)に FO-20 で RA3DQT と CW での QSO ができました。
 LOS 寸前の30秒程の QSO でしたが、当局にとって FO-20 で 1st RA3 です。
  FO-20 の北向き軌道で LOS 2-3 分前から CW で CQ を出していると時々
  U-Zone や 北欧の局が拾ってくれることがあるようです。
  
                          73, de JA6BX - Y. Esaki 34122731@people.or.jp 
                                                 or, ja6bx@jamsat.or.jp
                                                        ja6bx@amsat.org
 =========================   JARL運用情報   =========================

   *JARL NEWS 9月号にFO−29/ふじ3号,FO−20/ふじ2号の
    長期運用予定について記載されていましたのでご紹介します.
    デジトーカの運用がかなり強化されています.

        ■ ふじ3号/FO−29 ■
     
         月 日           切替時刻       運用モード
      9月  5日(金)	01:18(10:18)	JA
          12日(金)	00:13(09:13)	JD1200
          19日(金)	00:51(09:51)	JD9600
          26日(金)	08:09(17:09)	JA
    10月  3日(金)  08:46(17:46)    デジトーカ
          13日(月)  08:26(17:26)   JD1200
          17日(金)  08:18(17:18)    デジトーカ
          20日(月)  07:21(16:21)    JD9600
          24日(金)  07:13(16:13)    デジトーカ
          27日(月)  07:59(16:59)    JA
          31日(金)  07:51(16:51)   デジトーカ
    11月  4日(火)  07:43(16:43)    JD1200
            7日(金)  08:29(17:29)    デジトーカ
          10日(月)   07:31(16:31)    JD9600
          14日(金)  07:23(16:23)    JA
          21日(金)  08:01(17:01)    デジトーカ
          25日(火)  07:53(16:53)    JD1200
          28日(金)  08:39(17:39)    JD9600
    12月  5日(金)  07:33(16:33)    JA                   
 
  *切替時刻はUTC(協定世界時)で表示しています.(   )内の時刻は
    JST(日本標準時)です.
     モードの表記は次のとうりです.
       JA:アナログ系運用
       JD1200:ディジタル系1200bps PSKメールボックス運用(SSB)
       JD9600:ディジタル系9600bps FSKメールボックス運用(FM)
       デジトーカ         FM音声メッセージ送信

    ■ ふじ2号/FO−20 ■
     「ふじ2号」はアナログ系の連続運用とします.   
                                               
   =============   JAS-2 (ふじ3号)と現在までの情報   ===========
  
  A.電話によるふじ3号の運用情報
      社団法人日本アマチュア連盟によるサービス
           TEL .   03− 3942 − 1000
  B.アマチュア無線FAXサービス
      JARLによるふじ3号の軌道情報(オービットカレンダー)
         FAX No.  03− 3233 −0055 

  C.WWWブラウザで情報を簡単に見れる人のためにJAS−2
     ふじ3号の衛星としての運用されるまでの名前)の概要、打ち上げ
     までの状況、運用中における状況を説明したホームページを紹介し
     ておきます.

    1)社団法人日本アマチュア無線連盟(JARL)のホームページ
          http://www.jarl.or.jp/
    2)宇宙開発事業団(NASDA)ホームページ 
          http://www.nasda.go.jp/
         打上げ衛星 :地球観測プラットフォーム技術衛星(ADEOS) 
                       アマチュア衛星3号(JAS-2)
          http://yyy.tksc.nasda.go.jp/Home/Press/Press-j/jas-2_j.html
                                                       
  D.JAMSATによる軌道情報の活用
        JAMSATのホームページまたはjamsat−kepsの軌道要素より
      衛星の軌道情報を得る.
      
     JAMSATホームページURL    http://www.jamsat.or.jp

       上記ホームページでは各地で行われるアマチュア通信衛星に関する
      ミューティングのお知らせや世界のアマチュア衛星に関する情報が
      満載されています.
  =========================  その他の情報  ===============================
  
   ● JDディジタルテレメトリの解析(5)

     テレメトリ解析については今年のJARL NEWS3、4月号あるいは最新版
    がJARLのホームページ
          http://www.jarl.or.jp/Japanese/3_Fuji/jdtlm.htm 
    に詳しく説明されているので参照してください.

      ここではJDディジタルテレメトリの2つのフレームがF0なのかF1で
    あるかの判別法について少し説明してみましょう.
      テレメトリの最初の2桁の16進数の下位1桁目が偶数であればそのフレー
    ムは0(F0)です.
    0、2、4、6、8、A、C、EのときがそのフレームがF0に該当します.
    同様に奇数であればそのフレームは1(F1)です.
    1、3、5、7、9、B、D、FのときそのフレームはF1に該当します.

